Weather History for Newberry, MI

Change the Weather History Date:

Sunday, February 3, 2013

  Actual Average Record
Temperature  
Mean Temperature 4 °F -  
Max Temperature 15 °F 23 °F 44 °F (1991)
Min Temperature -7 °F 7 °F -16 °F (1981)
Degree Days  
Heating Degree Days 61    
Moisture  
Dew Point 2 °F    
Average Humidity 82    
Maximum Humidity 92    
Minimum Humidity 72    
Precipitation  
Precipitation 0.00 in - - ()
Sea Level Pressure  
Sea Level Pressure 29.83 in    
Wind  
Wind Speed 7 mph (SW)    
Max Wind Speed 16 mph    
Max Gust Speed 24 mph    
Visibility 6 miles    
Events Snow    
Averages and records for this station are not official NWS values.
T = Trace of Precipitation, MM = Missing Value Source: NWS Daily Summary

Daily Weather History Graph

Daily Weather History Graph

Search for Another Location

Airport:

Trip Planner

Search our weather history database for the weather conditions in past years. The results will help you decide how hot, cold, wet, or windy it might be!

Date:

Astronomy

Feb. 03, 2013 Rise Set
Actual Time 8:02 AM EST 5:49 PM EST
Civil Twilight 7:30 AM EST 6:21 PM EST
Nautical Twilight 6:54 AM EST 6:57 PM EST
Astronomical Twilight 6:19 AM EST 7:32 PM EST
Moon 1:29 AM EST (2/3) 11:24 AM EST (2/3)
Length of Visible Light 10h 51m
Length of Day
9h 47m
Waning Gibbous, 49% of the Moon is Illuminated
Feb 3
Waning Gibbous
Feb 10
New
Feb 17
First Quarter
Feb 25
Full
Mar 4
Last Quarter

Hourly Weather History & Observations

Time (EST) Temp. Windchill Dew Point Humidity Pressure Visibility Wind Dir Wind Speed Gust Speed Precip Events Conditions
12:15 AM 3.2 °F -7.8 °F -0.4 °F 85% 29.95 in 10.0 mi SW 5.8 mph - N/A   Clear
12:39 AM 3.2 °F -6.2 °F -0.4 °F 85% 29.94 in 10.0 mi WSW 4.6 mph - N/A   Scattered Clouds
12:55 AM 1.4 °F -6.2 °F -2.2 °F 85% 29.94 in 10.0 mi SW 3.5 mph - N/A   Mostly Cloudy
1:15 AM -5.8 °F -14.5 °F -9.4 °F 84% 29.92 in 10.0 mi WSW 3.5 mph - N/A   Mostly Cloudy
1:34 AM -7.6 °F -18.8 °F -11.2 °F 84% 29.92 in 10.0 mi SW 4.6 mph - N/A   Scattered Clouds
1:55 AM -7.6 °F -16.5 °F -11.2 °F 84% 29.90 in 10.0 mi SW 3.5 mph - N/A   Scattered Clouds
2:15 AM -7.6 °F -18.8 °F -11.2 °F 84% 29.90 in 10.0 mi SW 4.6 mph - N/A   Mostly Cloudy
2:34 AM -7.6 °F -20.6 °F -11.2 °F 84% 29.90 in 10.0 mi SW 5.8 mph - N/A   Scattered Clouds
2:55 AM -7.6 °F -20.6 °F -9.4 °F 92% 29.89 in 10.0 mi SW 5.8 mph - N/A   Overcast
3:14 AM -5.8 °F -18.4 °F -9.4 °F 84% 29.89 in 10.0 mi SW 5.8 mph - N/A   Overcast
3:34 AM -4.0 °F -16.3 °F -7.6 °F 85% 29.87 in 10.0 mi SW 5.8 mph - N/A   Overcast
3:55 AM -0.4 °F -8.3 °F -4.0 °F 85% 29.86 in 10.0 mi South 3.5 mph - N/A   Overcast
4:14 AM -4.0 °F -16.3 °F -7.6 °F 85% 29.85 in 10.0 mi South 5.8 mph - N/A   Overcast
4:55 AM 5.0 °F -6.9 °F -0.4 °F 78% 29.84 in 10.0 mi South 6.9 mph - N/A   Overcast
5:14 AM 5.0 °F -5.6 °F -0.4 °F 78% 29.83 in 10.0 mi South 5.8 mph - N/A   Overcast
5:35 AM 6.8 °F -4.8 °F -0.4 °F 72% 29.82 in 10.0 mi South 6.9 mph - N/A   Overcast
6:14 AM 6.8 °F -3.5 °F -0.4 °F 72% 29.81 in 10.0 mi South 5.8 mph - N/A   Overcast
6:35 AM 6.8 °F -3.5 °F -0.4 °F 72% 29.80 in 10.0 mi South 5.8 mph - N/A   Overcast
6:54 AM 6.8 °F -3.5 °F -0.4 °F 72% 29.81 in 10.0 mi SW 5.8 mph - N/A   Overcast
7:14 AM 5.0 °F -4.1 °F -0.4 °F 78% 29.80 in 10.0 mi SSW 4.6 mph - N/A   Overcast
7:35 AM 5.0 °F -4.1 °F -0.4 °F 78% 29.80 in 10.0 mi SSW 4.6 mph - N/A   Overcast
7:54 AM 3.2 °F -6.2 °F -0.4 °F 85% 29.79 in 10.0 mi SSW 4.6 mph - N/A   Overcast
8:14 AM 5.0 °F -4.1 °F -0.4 °F 78% 29.79 in 10.0 mi SSW 4.6 mph - N/A   Overcast
8:35 AM 3.2 °F -7.8 °F -0.4 °F 85% 29.79 in 10.0 mi South 5.8 mph - N/A   Overcast
8:54 AM 5.0 °F -6.9 °F -0.4 °F 78% 29.79 in 10.0 mi SSW 6.9 mph - N/A   Overcast
9:15 AM 6.8 °F -4.8 °F 1.4 °F 79% 29.79 in 10.0 mi SW 6.9 mph - N/A   Overcast
9:35 AM 6.8 °F -4.8 °F 1.4 °F 79% 29.78 in 5.0 mi SW 6.9 mph - N/A   Haze
9:54 AM 6.8 °F -4.8 °F 1.4 °F 79% 29.78 in 4.0 mi SSW 6.9 mph - N/A Snow Light Snow
10:15 AM 6.8 °F -3.5 °F 3.2 °F 85% 29.77 in 2.5 mi SSW 5.8 mph - N/A Snow Light Snow
10:35 AM 8.6 °F -1.3 °F 3.2 °F 79% 29.76 in 2.0 mi SSW 5.8 mph - N/A Snow Light Snow
10:54 AM 8.6 °F -3.7 °F 3.2 °F 79% 29.76 in 2.5 mi SSW 8.1 mph - N/A Snow Light Snow
11:15 AM 8.6 °F -4.7 °F 3.2 °F 79% 29.75 in 7.0 mi SW 9.2 mph - N/A Snow Light Snow
11:34 AM 8.6 °F -4.7 °F 3.2 °F 79% 29.75 in 10.0 mi SSW 9.2 mph - N/A   Overcast
11:54 AM 10.4 °F -2.4 °F 5.0 °F 79% 29.75 in 3.0 mi SW 9.2 mph - N/A Snow Light Snow
12:15 PM 10.4 °F -6.0 °F 6.8 °F 85% 29.75 in 2.0 mi WSW 15.0 mph - N/A Snow Light Snow
12:34 PM 10.4 °F -5.4 °F 6.8 °F 85% 29.75 in 2.5 mi WSW 13.8 mph 19.6 mph N/A Snow Light Snow
12:54 PM 12.2 °F -1.8 °F 6.8 °F 79% 29.74 in 7.0 mi WSW 11.5 mph - N/A   Overcast
1:15 PM 12.2 °F -3.7 °F 8.6 °F 85% 29.75 in 5.0 mi West 15.0 mph - N/A Snow Light Snow
1:34 PM 15.8 °F 2.1 °F 10.4 °F 79% 29.74 in 3.0 mi West 12.7 mph 18.4 mph N/A Snow Light Snow
1:55 PM 15.8 °F 2.1 °F 10.4 °F 79% 29.75 in 2.0 mi West 12.7 mph - N/A Snow Light Snow
2:15 PM 15.8 °F 2.1 °F 12.2 °F 86% 29.75 in 0.8 mi WNW 12.7 mph 17.3 mph N/A Snow Light Snow
2:34 PM 15.8 °F 0.3 °F 10.4 °F 79% 29.76 in 2.0 mi WNW 16.1 mph 24.2 mph N/A Snow Light Snow
2:55 PM 15.8 °F 3.4 °F 10.4 °F 79% 29.77 in 2.0 mi NW 10.4 mph 24.2 mph N/A Snow Light Snow
3:15 PM 15.8 °F 2.7 °F 8.6 °F 73% 29.78 in 5.0 mi NW 11.5 mph 23.0 mph N/A Snow Light Snow
3:34 PM 14.0 °F -0.2 °F 8.6 °F 79% 29.79 in 1.0 mi WNW 12.7 mph 20.7 mph N/A Snow Light Snow
3:55 PM 14.0 °F 0.5 °F 8.6 °F 79% 29.80 in 7.0 mi WNW 11.5 mph 16.1 mph N/A   Overcast
4:14 PM 12.2 °F -1.8 °F 5.0 °F 73% 29.81 in 10.0 mi West 11.5 mph 20.7 mph N/A   Overcast
4:34 PM 12.2 °F -0.2 °F 6.8 °F 79% 29.82 in 3.0 mi NW 9.2 mph 20.7 mph N/A Snow Light Snow
4:55 PM 12.2 °F -1.0 °F 8.6 °F 85% 29.82 in 1.2 mi NW 10.4 mph 16.1 mph N/A Snow Light Snow
5:35 PM 12.2 °F -1.8 °F 8.6 °F 85% 29.83 in 0.8 mi WNW 11.5 mph 18.4 mph N/A Snow Light Snow
5:55 PM 10.4 °F -2.4 °F 8.6 °F 92% 29.84 in 1.5 mi West 9.2 mph 17.3 mph N/A Snow Light Snow
6:14 PM 10.4 °F -3.3 °F 5.0 °F 79% 29.85 in 7.0 mi West 10.4 mph - N/A Snow Light Snow
6:35 PM 10.4 °F -2.4 °F 6.8 °F 85% 29.85 in 2.0 mi West 9.2 mph 17.3 mph N/A Snow Light Snow
6:55 PM 10.4 °F -2.4 °F 6.8 °F 85% 29.86 in 5.0 mi West 9.2 mph - N/A Snow Light Snow
7:14 PM 8.6 °F -7.0 °F 5.0 °F 85% 29.86 in 7.0 mi West 12.7 mph - N/A Snow Light Snow
7:35 PM 8.6 °F -5.5 °F 5.0 °F 85% 29.86 in 5.0 mi West 10.4 mph - N/A Snow Light Snow
7:54 PM 8.6 °F -5.5 °F 5.0 °F 85% 29.87 in 10.0 mi WSW 10.4 mph - N/A   Overcast
8:14 PM 8.6 °F -4.7 °F 3.2 °F 79% 29.87 in 10.0 mi WSW 9.2 mph - N/A Snow Light Snow
8:35 PM 8.6 °F -5.5 °F 3.2 °F 79% 29.87 in 5.0 mi SW 10.4 mph - N/A Snow Light Snow
8:54 PM 6.8 °F -8.6 °F 3.2 °F 85% 29.88 in 5.0 mi SW 11.5 mph - N/A Snow Light Snow
9:14 PM 6.8 °F -7.8 °F 3.2 °F 85% 29.88 in 7.0 mi SW 10.4 mph - N/A Snow Light Snow
9:35 PM 6.8 °F -6.9 °F 3.2 °F 85% 29.89 in 10.0 mi WSW 9.2 mph - N/A   Overcast
9:54 PM 6.8 °F -7.8 °F 3.2 °F 85% 29.89 in 5.0 mi WSW 10.4 mph - N/A Snow Light Snow
10:15 PM 6.8 °F -7.8 °F 3.2 °F 85% 29.89 in 5.0 mi WSW 10.4 mph - N/A Snow Light Snow
10:35 PM 6.8 °F -8.6 °F 3.2 °F 85% 29.89 in 2.0 mi WSW 11.5 mph - N/A Snow Light Snow
10:54 PM 6.8 °F -8.6 °F 3.2 °F 85% 29.88 in 3.0 mi SW 11.5 mph - N/A Snow Light Snow
11:15 PM 6.8 °F -6.9 °F 3.2 °F 85% 29.88 in 2.5 mi WSW 9.2 mph - N/A Snow Light Snow
11:35 PM 5.0 °F -9.1 °F 1.4 °F 85% 29.88 in 2.5 mi SW 9.2 mph - N/A Snow Light Snow
11:54 PM 3.2 °F -12.2 °F 1.4 °F 92% 29.88 in 3.0 mi WSW 10.4 mph - N/A Snow Light Snow